DW2235 Weather Reports


time (UTC)temp
C
wind
direction
speed
KPH
gust
KPH
rain 1hr
cm
rain 24hr
cm
rain mn
cm
humidity
%
barometer
mb
20180221230223 8 22 14.5 24.1 0.00 0.00 0.00 38 1011.2
20180221225720 8 68 22.5 24.1 0.00 0.00 0.00 38 1011.2
20180221225218 9 68 14.5 30.6 0.00 0.00 0.00 38 1011.2
20180221224719 9 22 20.9 30.6 0.00 0.00 0.00 37 1011.2
20180221224212 9 45 17.7 30.6 0.00 0.00 0.00 37 1011.2
20180221223721 9 22 20.9 24.1 0.00 0.00 0.00 37 1011.2
20180221223220 9 22 17.7 27.4 0.00 0.00 0.00 37 1011.2
20180221222717 9 45 19.3 27.4 0.00 0.00 0.00 37 1011.2
20180221222214 9 22 17.7 29.0 0.00 0.00 0.00 37 1011.2
20180221221721 9 45 20.9 29.0 0.00 0.00 0.00 37 1011.2
20180221221214 10 22 25.7 29.0 0.00 0.00 0.00 37 1011.2
20180221220719 10 45 16.1 29.0 0.00 0.00 0.00 37 1011.2
20180221220214 10 22 19.3 32.2 0.00 0.00 0.00 37 1011.2
20180221215718 10 22 24.1 32.2 0.00 0.00 0.00 35 1011.2
20180221215220 10 22 27.4 33.8 0.00 0.00 0.00 35 1011.2
20180221214726 10 22 20.9 33.8 0.00 0.00 0.00 35 1011.2
20180221214227 10 22 25.7 35.4 0.00 0.00 0.00 35 1011.2
20180221213726 10 22 22.5 35.4 0.00 0.00 0.00 35 1011.2
20180221213239 10 22 17.7 37.0 0.00 0.00 0.00 35 1010.2
20180221212717 10 45 24.1 37.0 0.00 0.00 0.00 35 1010.2
20180221212211 10 68 24.1 41.8 0.00 0.00 0.00 35 1010.2
20180221211719 10 22 20.9 41.8 0.00 0.00 0.00 35 1010.2
20180221211219 10 0 22.5 32.2 0.00 0.00 0.00 35 1010.2
20180221210724 10 22 29.0 32.2 0.00 0.00 0.00 34 1010.2
20180221210223 10 22 22.5 32.2 0.00 0.00 0.00 34 1011.2
20180221205727 10 22 22.5 32.2 0.00 0.00 0.00 34 1011.2
20180221205219 11 22 20.9 32.2 0.00 0.00 0.00 34 1011.2
20180221204723 11 68 20.9 32.2 0.00 0.00 0.00 34 1011.2
20180221204218 11 22 17.7 29.0 0.00 0.00 0.00 34 1011.2
20180221203716 11 45 20.9 29.0 0.00 0.00 0.00 34 1011.2
20180221203219 11 22 20.9 29.0 0.00 0.00 0.00 34 1011.2
20180221202721 11 22 24.1 29.0 0.00 0.00 0.00 34 1011.2
20180221202218 11 22 22.5 29.0 0.00 0.00 0.00 34 1011.2
20180221201721 11 22 19.3 24.1 0.00 0.00 0.00 34 1011.2
20180221201220 11 22 19.3 24.1 0.00 0.00 0.00 34 1011.2
20180221200725 11 22 14.5 24.1 0.00 0.00 0.00 34 1011.2
20180221200218 11 68 14.5 17.7 0.00 0.00 0.00 34 1011.2
20180221195720 11 45 14.5 24.1 0.00 0.00 0.00 34 1011.2
20180221195213 11 22 11.3 24.1 0.00 0.00 0.00 34 1011.2
20180221194717 11 338 19.3 24.1 0.00 0.00 0.00 34 1011.2
20180221194219 11 22 14.5 24.1 0.00 0.00 0.00 34 1011.2
20180221193719 11 22 16.1 24.1 0.00 0.00 0.00 34 1011.2
20180221193215 11 68 11.3 20.9 0.00 0.00 0.00 34 1011.2
20180221192721 11 22 16.1 20.9 0.00 0.00 0.00 34 1011.2
20180221192218 11 22 12.9 22.5 0.00 0.00 0.00 34 1011.2
20180221191720 11 22 14.5 22.5 0.00 0.00 0.00 34 1010.2
20180221191220 11 45 14.5 20.9 0.00 0.00 0.00 34 1010.2
20180221190725 12 22 11.3 20.9 0.00 0.00 0.00 33 1010.2
20180221190218 12 22 14.5 20.9 0.00 0.00 0.00 33 1010.2
20180221185711 12 68 9.7 20.9 0.00 0.00 0.00 33 1010.2
20180221185220 12 22 16.1 24.1 0.00 0.00 0.00 33 1010.2
20180221184721 12 22 12.9 24.1 0.00 0.00 0.00 33 1010.2
20180221184220 12 22 11.3 27.4 0.00 0.00 0.00 33 1010.2
20180221183720 12 22 11.3 27.4 0.00 0.00 0.00 32 1010.2
20180221183220 12 68 20.9 30.6 0.00 0.00 0.00 32 1010.2
20180221182723 13 68 17.7 30.6 0.00 0.00 0.00 32 1010.2
20180221182220 13 68 22.5 32.2 0.00 0.00 0.00 32 1010.2
20180221181720 13 68 19.3 32.2 0.00 0.00 0.00 32 1010.2
20180221181218 13 45 22.5 29.0 0.00 0.00 0.00 32 1010.2
20180221180723 13 22 19.3 29.0 0.00 0.00 0.00 32 1010.2
20180221180210 13 68 20.9 24.1 0.00 0.00 0.00 32 1010.2
20180221175715 13 68 17.7 32.2 0.00 0.00 0.00 31 1010.2
20180221175217 14 22 17.7 32.2 0.00 0.00 0.00 31 1010.2
20180221174720 14 22 17.7 32.2 0.00 0.00 0.00 31 1009.1
20180221174221 14 68 22.5 37.0 0.00 0.00 0.00 30 1009.1
20180221173719 14 45 19.3 37.0 0.00 0.00 0.00 30 1009.1
20180221173214 14 22 17.7 37.0 0.00 0.00 0.00 30 1009.1
20180221172716 14 22 20.9 37.0 0.00 0.00 0.00 30 1009.1
20180221172218 15 22 20.9 32.2 0.00 0.00 0.00 31 1009.1
20180221171715 15 68 17.7 32.2 0.00 0.00 0.00 30 1009.1
20180221171214 15 22 20.9 37.0 0.00 0.00 0.00 30 1009.1
20180221170724 15 22 17.7 37.0 0.00 0.00 0.00 30 1009.1
20180221170218 15 68 24.1 33.8 0.00 0.00 0.00 29 1010.2
20180221165718 15 22 25.7 30.6 0.00 0.00 0.00 28 1010.2
20180221165214 15 22 14.5 33.8 0.00 0.00 0.00 29 1010.2
20180221164721 15 112 24.1 33.8 0.00 0.00 0.00 29 1010.2
20180221164212 15 22 20.9 33.8 0.00 0.00 0.00 30 1010.2
20180221163720 15 68 25.7 33.8 0.00 0.00 0.00 29 1010.2
20180221163222 16 22 19.3 29.0 0.00 0.00 0.00 29 1010.2
20180221162722 16 22 27.4 29.0 0.00 0.00 0.00 28 1010.2
20180221162210 16 22 16.1 30.6 0.00 0.00 0.00 29 1010.2
20180221161714 16 22 22.5 30.6 0.00 0.00 0.00 29 1010.2
20180221161213 16 22 14.5 32.2 0.00 0.00 0.00 31 1010.2
20180221160726 16 22 19.3 32.2 0.00 0.00 0.00 30 1010.2
20180221160217 16 22 17.7 32.2 0.00 0.00 0.00 30 1010.2
20180221155712 16 22 16.1 27.4 0.00 0.00 0.00 31 1010.2
20180221155222 16 22 17.7 22.5 0.00 0.00 0.00 31 1010.2
20180221154717 16 0 16.1 22.5 0.00 0.00 0.00 31 1010.2
20180221154217 16 22 14.5 22.5 0.00 0.00 0.00 31 1010.2
20180221153721 16 22 14.5 33.8 0.00 0.00 0.00 32 1010.2
20180221153213 16 45 14.5 33.8 0.00 0.00 0.00 33 1010.2
20180221152724 16 22 16.1 33.8 0.00 0.00 0.00 32 1010.2
20180221152220 16 68 14.5 22.5 0.00 0.00 0.00 32 1010.2
20180221151714 16 68 12.9 27.4 0.00 0.00 0.00 32 1010.2
20180221151212 16 22 12.9 27.4 0.00 0.00 0.00 33 1010.2
20180221150725 16 68 14.5 27.4 0.00 0.00 0.00 32 1010.2
20180221150220 16 22 17.7 20.9 0.00 0.00 0.00 32 1010.2
20180221145719 16 68 11.3 20.9 0.00 0.00 0.00 33 1010.2
20180221145214 16 22 16.1 29.0 0.00 0.00 0.00 33 1010.2
20180221144720 15 22 11.3 29.0 0.00 0.00 0.00 33 1010.2
20180221144240 15 22 16.1 29.0 0.00 0.00 0.00 33 1010.2
20180221143716 15 22 16.1 29.0 0.00 0.00 0.00 33 1010.2
20180221143212 15 22 17.7 22.5 0.00 0.00 0.00 33 1010.2
20180221142723 15 45 16.1 22.5 0.00 0.00 0.00 34 1010.2
20180221142214 15 338 16.1 27.4 0.00 0.00 0.00 34 1010.2
20180221141725 15 22 17.7 27.4 0.00 0.00 0.00 34 1010.2
20180221141216 15 22 14.5 33.8 0.00 0.00 0.00 35 1010.2
20180221140722 15 22 11.3 33.8 0.00 0.00 0.00 35 1010.2
20180221140217 15 22 14.5 33.8 0.00 0.00 0.00 35 1011.2
20180221135726 15 22 17.7 33.8 0.00 0.00 0.00 35 1011.2
20180221135218 15 22 19.3 27.4 0.00 0.00 0.00 35 1011.2
20180221134722 15 68 17.7 27.4 0.00 0.00 0.00 36 1012.2
20180221134212 15 0 17.7 27.4 0.00 0.00 0.00 36 1012.2
20180221133718 15 68 17.7 30.6 0.00 0.00 0.00 37 1012.2
20180221133221 15 0 17.7 30.6 0.00 0.00 0.00 37 1012.2
20180221132719 14 22 16.1 30.6 0.00 0.00 0.00 37 1012.2
20180221132217 14 22 20.9 32.2 0.00 0.00 0.00 37 1012.2
20180221131718 14 68 20.9 32.2 0.00 0.00 0.00 37 1012.2
20180221131222 14 68 19.3 32.2 0.00 0.00 0.00 37 1012.2
20180221130722 14 68 16.1 32.2 0.00 0.00 0.00 38 1012.2
20180221130216 14 22 25.7 30.6 0.00 0.00 0.00 38 1012.2
20180221125720 14 22 17.7 32.2 0.00 0.00 0.00 38 1012.2
20180221125212 14 0 24.1 35.4 0.00 0.00 0.00 38 1012.2
20180221124715 14 68 17.7 35.4 0.00 0.00 0.00 39 1011.2
20180221124212 13 22 25.7 35.4 0.00 0.00 0.00 39 1011.2
20180221123710 13 22 22.5 35.4 0.00 0.00 0.00 40 1011.2
20180221123215 13 22 19.3 35.4 0.00 0.00 0.00 40 1012.2
20180221122724 13 22 24.1 35.4 0.00 0.00 0.00 40 1012.2
20180221122221 13 0 16.1 32.2 0.00 0.00 0.00 41 1012.2
20180221121722 13 22 24.1 32.2 0.00 0.00 0.00 40 1012.2
20180221121219 13 22 24.1 32.2 0.00 0.00 0.00 40 1012.2
20180221120724 13 22 20.9 32.2 0.00 0.00 0.00 40 1012.2
20180221120215 13 22 16.1 37.0 0.00 0.00 0.00 40 1012.2
20180221115722 13 22 27.4 37.0 0.00 0.00 0.00 40 1012.2
20180221115212 13 22 19.3 37.0 0.00 0.00 0.00 40 1012.2
20180221114717 13 22 27.4 37.0 0.00 0.00 0.00 40 1013.2
20180221114214 13 22 20.9 37.0 0.00 0.00 0.00 40 1013.2
20180221113719 13 22 27.4 37.0 0.00 0.00 0.00 40 1013.2
20180221113211 13 68 22.5 33.8 0.00 0.00 0.00 40 1013.2
20180221112717 13 338 32.2 33.8 0.00 0.00 0.00 39 1013.2
20180221112221 13 22 27.4 33.8 0.00 0.00 0.00 40 1013.2
20180221111716 13 45 24.1 33.8 0.00 0.00 0.00 40 1013.2
20180221111214 13 22 24.1 35.4 0.00 0.00 0.00 41 1013.2
20180221110718 13 22 24.1 35.4 0.00 0.00 0.00 40 1013.2
20180221110221 13 22 22.5 35.4 0.00 0.00 0.00 41 1013.2
20180221105720 13 22 20.9 35.4 0.00 0.00 0.00 41 1013.2
20180221105219 13 45 22.5 35.4 0.00 0.00 0.00 41 1013.2
20180221104709 13 68 24.1 35.4 0.00 0.00 0.00 41 1013.2
20180221104210 12 68 22.5 37.0 0.00 0.00 0.00 40 1013.2
20180221103717 12 22 20.9 41.8 0.00 0.00 0.00 40 1013.2
20180221103214 12 68 22.5 41.8 0.00 0.00 0.00 42 1013.2
20180221102724 12 338 24.1 41.8 0.00 0.00 0.00 42 1013.2
20180221102214 12 22 22.5 40.2 0.00 0.00 0.00 43 1013.2
20180221101718 12 22 25.7 40.2 0.00 0.00 0.00 42 1013.2
20180221101216 12 22 33.8 37.0 0.00 0.00 0.00 42 1013.2
20180221100723 12 22 20.9 37.0 0.00 0.00 0.00 43 1013.2
20180221100218 12 68 20.9 24.1 0.00 0.00 0.00 43 1013.2
20180221095719 12 22 19.3 24.1 0.00 0.00 0.00 43 1013.2
20180221094724 12 22 19.3 24.1 0.00 0.00 0.00 45 1013.2
20180221094215 12 45 17.7 22.5 0.00 0.00 0.00 45 1013.2
20180221093723 11 68 17.7 22.5 0.00 0.00 0.00 46 1013.2
20180221092723 11 68 11.3 22.5 0.00 0.00 0.00 47 1013.2
20180221092230 11 22 14.5 22.5 0.00 0.00 0.00 48 1013.2
20180221091730 11 22 16.1 22.5 0.00 0.00 0.00 48 1013.2
20180221091229 11 22 16.1 19.3 0.00 0.00 0.00 49 1013.2
20180221090724 11 68 17.7 17.7 0.00 0.00 0.00 48 1013.2
20180221090218 10 22 11.3 17.7 0.00 0.00 0.00 49 1013.2
20180221085721 10 68 11.3 17.7 0.00 0.00 0.00 49 1013.2
20180221085225 10 68 9.7 17.7 0.00 0.00 0.00 50 1013.2
20180221084722 10 68 8.0 17.7 0.00 0.00 0.00 50 1014.3
20180221084230 10 68 8.0 16.1 0.00 0.00 0.00 51 1014.3
20180221083723 10 68 11.3 16.1 0.00 0.00 0.00 51 1014.3
20180221083223 10 68 8.0 14.5 0.00 0.00 0.00 51 1014.3
20180221082721 10 22 11.3 14.5 0.00 0.00 0.00 51 1014.3
20180221082215 9 68 11.3 17.7 0.00 0.00 0.00 52 1014.3
20180221081225 9 22 16.1 17.7 0.00 0.00 0.00 52 1014.3
20180221080724 9 22 9.7 20.9 0.00 0.00 0.00 52 1014.3
20180221080219 9 68 11.3 20.9 0.00 0.00 0.00 52 1013.2
20180221075809 9 45 16.1 20.9 0.00 0.00 0.00 52 1013.2
20180221075220 9 22 14.5 24.1 0.00 0.00 0.00 52 1013.2
20180221074718 9 68 16.1 24.1 0.00 0.00 0.00 52 1013.2
20180221074222 9 22 14.5 24.1 0.00 0.00 0.00 52 1013.2
20180221073722 9 22 16.1 24.1 0.00 0.00 0.00 51 1013.2
20180221073212 9 22 19.3 20.9 0.00 0.00 0.00 51 1013.2
20180221072726 8 22 14.5 20.9 0.00 0.00 0.00 51 1013.2
20180221072222 8 22 11.3 6.4 0.00 0.00 0.00 52 1013.2
20180221071724 8 22 6.4 6.4 0.00 0.00 0.00 51 1013.2
20180221071218 8 68 4.8 6.4 0.00 0.00 0.00 51 1013.2
20180221070725 8 68 3.2 6.4 0.00 0.00 0.00 51 1013.2
20180221070218 8 68 4.8 6.4 0.00 0.00 0.00 51 1013.2
20180221065722 8 68 6.4 6.4 0.00 0.00 0.00 51 1013.2
20180221065221 9 68 6.4 6.4 0.00 0.00 0.00 51 1013.2
20180221064727 9 68 4.8 6.4 0.00 0.00 0.00 51 1012.2
20180221064227 9 45 6.4 6.4 0.00 0.00 0.00 51 1012.2
20180221063724 9 22 4.8 8.0 0.00 0.00 0.00 50 1012.2
20180221063219 9 68 1.6 8.0 0.00 0.00 0.00 50 1013.2
20180221062724 9 68 4.8 17.7 0.00 0.00 0.00 50 1013.2
20180221062225 9 22 6.4 17.7 0.00 0.00 0.00 50 1013.2
20180221061721 9 45 3.2 17.7 0.00 0.00 0.00 50 1013.2
20180221061219 9 22 4.8 17.7 0.00 0.00 0.00 50 1013.2
20180221060725 9 68 9.7 19.3 0.00 0.00 0.00 50 1013.2
20180221060219 9 22 12.9 19.3 0.00 0.00 0.00 50 1013.2
20180221055722 9 22 14.5 19.3 0.00 0.00 0.00 50 1013.2
20180221055218 9 22 14.5 19.3 0.00 0.00 0.00 50 1013.2
20180221054722 9 22 14.5 19.3 0.00 0.00 0.00 50 1013.2
20180221054219 9 22 16.1 17.7 0.00 0.00 0.00 51 1013.2
20180221053722 9 68 16.1 17.7 0.00 0.00 0.00 51 1013.2
20180221053217 9 68 9.7 25.7 0.00 0.00 0.00 51 1013.2
20180221052729 10 22 11.3 25.7 0.00 0.00 0.00 51 1013.2
20180221052221 10 22 14.5 22.5 0.00 0.00 0.00 51 1013.2
20180221051721 10 22 17.7 22.5 0.00 0.00 0.00 51 1014.3
20180221051224 10 22 16.1 20.9 0.00 0.00 0.00 51 1014.3
20180221050718 10 22 14.5 30.6 0.00 0.00 0.00 51 1014.3
20180221050220 10 22 14.5 30.6 0.00 0.00 0.00 51 1014.3
20180221045720 10 22 14.5 30.6 0.00 0.00 0.00 51 1014.3
20180221045217 10 22 12.9 30.6 0.00 0.00 0.00 51 1014.3
20180221044720 10 45 14.5 30.6 0.00 0.00 0.00 52 1014.3
20180221044220 10 45 24.1 27.4 0.00 0.00 0.00 52 1014.3
20180221043714 9 22 14.5 27.4 0.00 0.00 0.00 53 1014.3
20180221043219 9 22 16.1 20.9 0.00 0.00 0.00 53 1014.3
20180221042717 9 22 17.7 20.9 0.00 0.00 0.00 53 1014.3
20180221042221 9 22 17.7 17.7 0.00 0.00 0.00 53 1014.3
20180221041720 9 22 12.9 17.7 0.00 0.00 0.00 53 1013.2
20180221041212 9 45 12.9 24.1 0.00 0.00 0.00 53 1013.2
20180221040722 9 22 16.1 24.1 0.00 0.00 0.00 53 1013.2
20180221040214 9 22 11.3 16.1 0.00 0.00 0.00 54 1014.3
20180221035714 9 22 14.5 14.5 0.00 0.00 0.00 54 1014.3
20180221035216 9 22 11.3 16.1 0.00 0.00 0.00 54 1014.3
20180221034720 9 22 9.7 16.1 0.00 0.00 0.00 54 1013.2
20180221034218 9 22 11.3 16.1 0.00 0.00 0.00 54 1013.2
20180221033712 9 22 14.5 17.7 0.00 0.00 0.00 53 1013.2
20180221033218 9 68 12.9 17.7 0.00 0.00 0.00 53 1014.3
20180221032719 9 22 12.9 17.7 0.00 0.00 0.00 53 1014.3
20180221032213 9 22 12.9 19.3 0.00 0.00 0.00 53 1014.3
20180221031721 10 22 12.9 0.0 0.00 0.00 0.00 53 1014.3
20180221031210 10 22 14.5 20.9 0.00 0.00 0.00 53 1014.3
20180221030721 10 22 14.5 20.9 0.00 0.00 0.00 53 1014.3
20180221030218 10 45 14.5 20.9 0.00 0.00 0.00 53 1014.3
20180221025712 10 22 14.5 20.9 0.00 0.00 0.00 53 1014.3
20180221025210 10 22 14.5 20.9 0.00 0.00 0.00 53 1014.3
20180221024714 10 22 14.5 20.9 0.00 0.00 0.00 53 1015.3
20180221024222 10 22 14.5 17.7 0.00 0.00 0.00 54 1015.3
20180221023719 10 22 17.7 14.5 0.00 0.00 0.00 54 1015.3
20180221023213 10 22 14.5 17.7 0.00 0.00 0.00 54 1015.3
20180221022724 10 45 6.4 17.7 0.00 0.00 0.00 53 1015.3
20180221022222 10 68 8.0 17.7 0.00 0.00 0.00 53 1015.3
20180221021715 10 68 11.3 17.7 0.00 0.00 0.00 53 1016.3
20180221021212 10 68 8.0 12.9 0.00 0.00 0.00 53 1016.3
20180221020721 10 68 9.7 12.9 0.00 0.00 0.00 52 1016.3
20180221020213 10 22 8.0 16.1 0.00 0.00 0.00 52 1016.3
20180221015719 10 22 8.0 16.1 0.00 0.00 0.00 51 1016.3
20180221015220 10 68 9.7 12.9 0.00 0.00 0.00 51 1016.3
20180221014726 10 22 11.3 12.9 0.00 0.00 0.00 50 1016.3
20180221014221 10 68 9.7 12.9 0.00 0.00 0.00 50 1016.3
20180221013712 10 45 6.4 12.9 0.00 0.00 0.00 50 1016.3
20180221013213 10 68 8.0 11.3 0.00 0.00 0.00 49 1016.3
20180221012717 10 68 9.7 11.3 0.00 0.00 0.00 49 1016.3
20180221012219 11 68 9.7 14.5 0.00 0.00 0.00 49 1016.3
20180221011723 11 68 6.4 14.5 0.00 0.00 0.00 49 1016.3
20180221011224 11 68 9.7 20.9 0.00 0.00 0.00 48 1016.3
20180221010722 11 45 8.0 20.9 0.00 0.00 0.00 48 1016.3
20180221010220 11 22 8.0 20.9 0.00 0.00 0.00 48 1016.3
20180221005715 11 90 9.7 20.9 0.00 0.00 0.00 47 1016.3
20180221005218 11 45 9.7 20.9 0.00 0.00 0.00 47 1016.3
20180221004718 11 22 16.1 20.9 0.00 0.00 0.00 47 1015.3
20180221004213 11 0 14.5 20.9 0.00 0.00 0.00 47 1015.3
20180221003724 11 22 12.9 20.9 0.00 0.00 0.00 47 1015.3
20180221003220 11 22 12.9 20.9 0.00 0.00 0.00 46 1015.3
20180221002724 11 22 11.3 20.9 0.00 0.00 0.00 46 1015.3
20180221002219 11 68 14.5 20.9 0.00 0.00 0.00 46 1015.3
20180221001721 11 22 17.7 20.9 0.00 0.00 0.00 46 1016.3
20180221001217 11 22 12.9 14.5 0.00 0.00 0.00 46 1016.3
20180221000725 11 0 16.1 14.5 0.00 0.00 0.00 46 1016.3
20180221000212 11 22 11.3 17.7 0.00 0.00 0.00 46 1016.3
20180220235719 12 22 6.4 22.5 0.00 0.00 0.00 45 1016.3
20180220235218 12 22 11.3 29.0 0.00 0.00 0.00 45 1016.3
20180220234720 12 22 14.5 29.0 0.00 0.00 0.00 45 1016.3
20180220234220 12 45 16.1 22.5 0.00 0.00 0.00 45 1016.3
20180220233719 12 22 22.5 22.5 0.00 0.00 0.00 45 1016.3
20180220233218 12 22 16.1 20.9 0.00 0.00 0.00 45 1016.3
20180220232723 12 22 20.9 20.9 0.00 0.00 0.00 45 1016.3
20180220232217 12 0 14.5 20.9 0.00 0.00 0.00 45 1016.3
20180220231725 12 22 17.7 17.7 0.00 0.00 0.00 45 1016.3
20180220231214 12 22 11.3 20.9 0.00 0.00 0.00 45 1016.3